User: anonymous   Login
Location: B
(0.0000°N, 0.0000°E)
Time: 06:38:38
(UTC+02:00)
Language:

Cosmos 1025 Rocket - Orbit

View from above orbital plane
View from above orbital plane
View from above satellite
View from above satellite

Ground track
Ground track

The orbit data is extracted from the following two-line orbital elements,

1 10974U 78067B   15187.83141936  .00000326  00000-0  33571-4 0  9990
2 10974 082.4835 122.8159 0017552 175.2030 184.9359 14.87006316  1836
Epoch (UTC): 06 July 2015 19:57:14
Eccentricity: 0.0017552
inclination: 82.4835°
perigee height: 595 km
apogee height: 619 km
right ascension of ascending node: 122.8159°
argument of perigee: 175.2030°
revolutions per day: 14.87006316
mean anomaly at epoch: 184.9359°
orbit number at epoch: 183

The dashed part of the orbit path shows where the satellite is in the earth's shadow,  

DLR